Fort Lauderdale, FL

4:48 AM EST on December 07, 2019 (GMT -0500)
Fort Lauderdale Executive

Weather History for KFXE - October, 2019

Change the Weather History Date:

Tuesday, October 1, 2019

  Actual Average Record
Temperature  
Mean Temperature 82 °F -  
Max Temperature 87 °F 89 °F 96 °F (1980)
Min Temperature 78 °F 72 °F 64 °F (1976)
Cooling Degree Days 17    
Growing Degree Days 32 (Base 50)    
Moisture  
Dew Point 71 °F    
Average Humidity 71    
Maximum Humidity 90    
Minimum Humidity 55    
Precipitation  
Precipitation 0.20 in - - ()
Sea Level Pressure  
Sea Level Pressure 29.91 in    
Wind  
Wind Speed 12 mph ()    
Max Wind Speed 23 mph    
Max Gust Speed 33 mph    
Visibility 10.0 miles    
Events Rain    
Averages and records for this station are not official NWS values.
T = Trace of Precipitation, MM = Missing Value Source: Averaged Metar Reports

Daily Weather History Graph

Daily Weather History Graph

Search for Another Location

Airport or City:

Astronomy

Oct. 01, 2019 Rise Set
Actual Time 7:12 AM EDT 7:07 PM EDT
Civil Twilight 6:49 AM EDT 7:30 PM EDT
Nautical Twilight 6:23 AM EDT 7:57 PM EDT
Astronomical Twilight 5:56 AM EDT 8:23 PM EDT
Moon 10:11 AM EDT (10/1) 9:38 PM EDT (10/1)
Length of Visible Light 12h 40m
Length of Day
11h 54m
Waxing Crescent, 12% of the Moon is Illuminated
Oct 1
Waxing Crescent
Oct 5
First Quarter
Oct 13
Full
Oct 21
Last Quarter
Oct 27
New

Hourly Weather History & Observations

Time (EDT) Temp. Heat Index Dew Point Humidity Pressure Visibility Wind Dir Wind Speed Gust Speed Precip Events Conditions
12:53 AM 79.0 °F - 69.1 °F 72% 29.94 in 10.0 mi ENE 10.4 mph - N/A   Partly Cloudy
1:53 AM 79.0 °F - 69.1 °F 72% 29.92 in 10.0 mi ENE 12.7 mph - N/A   Partly Cloudy
2:53 AM 79.0 °F - 69.1 °F 72% 29.90 in 10.0 mi ENE 13.8 mph - N/A   Mostly Cloudy
3:53 AM 79.0 °F - 69.1 °F 72% 29.88 in 10.0 mi ENE 11.5 mph 19.6 mph N/A   Partly Cloudy
4:53 AM 79.0 °F - 70.0 °F 74% 29.88 in 10.0 mi ENE 15.0 mph 20.7 mph N/A   Partly Cloudy
5:53 AM 79.0 °F - 70.0 °F 74% 29.89 in 10.0 mi NE 10.4 mph 19.6 mph N/A   Scattered Clouds
6:53 AM 79.0 °F - 70.0 °F 74% 29.89 in 10.0 mi NE 11.5 mph - N/A   Clear
7:53 AM 80.1 °F 83.2 °F 70.0 °F 71% 29.91 in 10.0 mi ENE 11.5 mph 20.7 mph N/A   Scattered Clouds
8:53 AM 81.0 °F 84.9 °F 71.1 °F 72% 29.91 in 10.0 mi NE 10.4 mph 21.9 mph 0.00 in   Mostly Cloudy
9:53 AM 82.0 °F 86.7 °F 72.0 °F 71% 29.93 in 10.0 mi ENE 15.0 mph 26.5 mph N/A   Scattered Clouds
10:53 AM 79.0 °F - 73.9 °F 84% 29.94 in 10.0 mi ENE 10.4 mph - 0.09 in   Overcast
11:21 AM 82.0 °F 87.4 °F 73.0 °F 74% 29.94 in 10.0 mi ENE 12.7 mph 24.2 mph N/A   Mostly Cloudy
11:28 AM 82.9 °F 88.0 °F 72.0 °F 69% 29.94 in 10.0 mi ENE 23.0 mph 31.1 mph N/A   Mostly Cloudy
11:53 AM 84.0 °F 89.6 °F 72.0 °F 67% 29.94 in 10.0 mi ENE 21.9 mph 31.1 mph N/A   Mostly Cloudy
12:53 PM 86.0 °F 90.7 °F 70.0 °F 59% 29.94 in 10.0 mi ENE 15.0 mph 27.6 mph N/A   Mostly Cloudy
1:53 PM 84.9 °F 88.8 °F 69.1 °F 59% 29.92 in 10.0 mi NE 13.8 mph 26.5 mph N/A   Mostly Cloudy
2:53 PM 86.0 °F 89.4 °F 68.0 °F 55% 29.90 in 10.0 mi NE 17.3 mph 33.4 mph N/A   Scattered Clouds
3:53 PM 86.0 °F 90.1 °F 69.1 °F 57% 29.89 in 10.0 mi ENE 18.4 mph 27.6 mph N/A   Scattered Clouds
4:53 PM 82.9 °F 87.0 °F 70.0 °F 65% 29.88 in 10.0 mi ENE 20.7 mph 25.3 mph N/A   Mostly Cloudy
5:53 PM 82.9 °F 87.5 °F 71.1 °F 67% 29.87 in 10.0 mi NE 17.3 mph 27.6 mph N/A   Mostly Cloudy
6:53 PM 82.0 °F 86.3 °F 71.1 °F 69% 29.88 in 10.0 mi NE 15.0 mph 23.0 mph N/A   Mostly Cloudy
7:53 PM 81.0 °F 84.9 °F 71.1 °F 72% 29.89 in 10.0 mi NE 15.0 mph 26.5 mph N/A   Overcast
8:53 PM 81.0 °F 84.9 °F 71.1 °F 72% 29.91 in 10.0 mi NE 17.3 mph 24.2 mph N/A   Overcast
9:08 PM 81.0 °F 84.9 °F 71.1 °F 72% 29.90 in 10.0 mi NE 16.1 mph 23.0 mph N/A   Overcast
9:53 PM 81.0 °F 85.2 °F 72.0 °F 74% 29.91 in 10.0 mi NE 13.8 mph 19.6 mph N/A   Mostly Cloudy
10:53 PM 78.1 °F - 75.0 °F 90% 29.91 in 10.0 mi ENE 11.5 mph - 0.10 in   Mostly Cloudy
11:53 PM 79.0 °F - 73.9 °F 84% 29.91 in 9.0 mi ENE 10.4 mph 20.7 mph 0.01 in Rain Light Rain